Location: Haliburton Scout Reserve
(45.0900°N, 78.3200°W)
Time: 01:51:28
(UTC-04:00)

DIWATA 2B (PO-101) - Pass Details

Date: 18 May 2022
Orbit: 585 x 597 km, 98.0° (Epoch: 27 June)

Event Time Altitude Azimuth Distance (km) Brightness Sun altitude
Exits shadow 04:21:30 12° 261° (W) 1,755 ? -12.0°
Maximum altitude 04:22:06 13° 270° (W) 1,737 ? -11.9°
Drops below altitude 10° 04:23:59 10° 297° (WNW) 1,915 ? -11.7°
Sets 04:27:20 0° 327° (NNW) 2,825 ? -11.3°
